Tracking 29967 objects as of 5-Dec-2024
HD Live streaming from Space Station
objects crossing your sky now

STARLINK-11105

Track STARLINK-11105 now!
10-day predictions
STARLINK-11105 is classified as:


NORAD ID: 59758
Int'l Code: 2024-091F
Perigee: 366.4 km
Apogee: 367.4 km
Inclination: 53.2 °
Period: 91.7 minutes
Semi major axis: 6737 km
RCS: Unknown
Launch date: May 14, 2024
Source: United States (US)
Launch site: AIR FORCE WESTERN TEST RANGE (AFWTR)
Your satellite tracking list
Your tracking list is empty




NASA's NSSDC Master Catalog

Two Line Element Set (TLE):
1 59758U 24091F   24340.19418537  .00002312  00000-0  23935-4 0  9995
2 59758  53.1583 311.4786 0000795  97.4099 262.7009 15.69702618 33344
Source of the keplerian elements: AFSPC